This demonstration page uses our WeatherBlox Daily Observations layout. Learn more.

Left ArrowRight Arrow

34.74481, -87.66753

Hourly Observations for July 13, 2022

Temp ( °F °C ) Dew Point ( °F °C ) Humidity (%) Winds ( mph kmh ) Pressure ( in mb ) Visibility ( mi km ) Precip ( " mm )
12:22 am 00:22 Mostly Cloudy with Nearby Thunderstorms 79 26.1 69 20.6 72 72 ENE 16 26 29.96 1014 10 16 0.00 0.00
12:49 am 00:49 Cloudy with Thunderstorms 77 25 68 20 74 74 ENE 16 26 29.98 1015 10 16 0.00 0.00
12:53 am 00:53 Windy with Storms Likely 76 24.4 69 20.6 79 79 ENE 20 31 29.99 1016 9 14 0.04 1.02
12:58 am 00:58 Cloudy with Strong Thunderstorms 74 23.3 69 20.6 85 85 NE 12 19 30.00 1016 3 4 0.15 3.81
1:05 am 01:05 Cloudy with Nearby Thunderstorms 72 22.2 69 20.6 91 91 ENE 22 35 30.00 1016 2 2 0.22 5.59
1:12 am 01:12 Cloudy with Thunderstorms 72 22.2 69 20.6 91 91 NE 18 30 30.01 1016 3 5 0.25 6.35
1:26 am 01:26 Cloudy with Strong Thunderstorms 72 22.2 69 20.6 91 91 NNE 15 24 30.00 1016 2 3 0.47 11.94
1:50 am 01:50 Cloudy with Strong Thunderstorms 72 22 70 21 94 94 ESE 8 13 30.00 1016 1 1 1.04 26.42
1:53 am 01:53 Cloudy with Strong Thunderstorms 72 22.2 70 21.1 94 94 ESE 7 11 29.99 1016 1 2 1.07 27.18
2:00 am 02:00 Mostly Cloudy with Thunderstorms 72 22.2 70 21.1 94 94 SE 14 22 29.98 1015 3 5 0.01 0.25
2:07 am 02:07 Mostly Cloudy with Thunderstorms 72 22.2 70 21.1 94 94 SE 8 13 29.97 1015 10 16 0.01 0.25
2:13 am 02:13 Mostly Cloudy 72 22.2 70 21.1 94 94 S 9 15 29.97 1015 10 16 0.01 0.25
2:53 am 02:53 Mostly Cloudy 71 21.7 69 20.6 94 94 SSE 7 11 29.97 1015 10 16 0.01 0.25
3:23 am 03:23 Mostly Cloudy 72 22.2 70 21.1 94 94 Calm 29.98 1015 10 16 0.00 0.00
3:49 am 03:49 Mostly Cloudy with Nearby Thunderstorms 72 22 70 21 94 94 SSW 3 6 29.96 1015 10 16 0.00 0.00
3:53 am 03:53 Mostly Cloudy with Nearby Thunderstorms 72 22.2 70 21.1 94 94 SSW 3 6 29.96 1014 10 16 0.00 0.00
4:03 am 04:03 Mostly Cloudy with Thunderstorms 72 22.2 70 21.1 94 94 WNW 6 9 29.98 1015 10 16 0.00 0.00
4:21 am 04:21 Cloudy with Thunderstorms 72 22.2 70 21.1 94 94 W 10 17 30.01 1016 9 14 0.00 0.00
4:37 am 04:37 Cloudy with Strong Thunderstorms 72 22.2 70 21.1 94 94 S 6 9 30.00 1016 3 4 0.14 3.56
4:53 am 04:53 Mostly Cloudy with Thunderstorms 72 22.2 70 21.1 94 94 S 10 17 29.98 1015 5 8 0.24 6.10
5:06 am 05:06 Partly Cloudy with Nearby Thunderstorms 73 22.8 70 21.1 90 90 SSW 12 19 30.00 1016 9 14 0.01 0.25
5:34 am 05:34 Partly Cloudy with Light Rain 73 22.8 70 21.1 90 90 S 13 20 29.99 1016 10 16 0.04 1.02
5:53 am 05:53 Mostly Sunny 73 22.8 69 20.6 87 87 SW 10 17 29.98 1015 10 16 0.04 1.02
6:53 am 06:53 Mostly Cloudy 72 22.2 69 20.6 91 91 W 6 9 30.00 1016 10 16 0.00 0.00
7:53 am 07:53 Mostly Cloudy 72 22.2 68 20 87 87 SSW 6 9 30.00 1016 10 16 0.00 0.00
8:53 am 08:53 Sunny 74 23.3 69 20.6 85 85 WSW 6 9 30.00 1016 10 16 0.00 0.00
9:53 am 09:53 Cloudy 76 24.4 70 21.1 82 82 N 5 7 30.02 1017 10 16 0.00 0.00
10:53 am 10:53 Mostly Sunny 76 24.4 70 21.1 82 82 NNW 5 7 30.05 1018 10 16 0.00 0.00
11:53 am 11:53 Cloudy 76 24.4 70 21.1 82 82 Calm 30.04 1017 10 16 0.00 0.00
12:53 pm 12:53 Mostly Cloudy 79 26.1 71 21.7 77 77 Calm 30.05 1018 10 16 0.00 0.00
1:53 pm 13:53 Mostly Cloudy 80 26.7 70 21.1 71 71 Calm 30.03 1017 10 16 0.00 0.00
2:53 pm 14:53 Cloudy 80 26.7 72 22.2 76 76 WNW 5 7 30.03 1017 10 16 0.00 0.00
3:53 pm 15:53 Partly Cloudy 83 28.3 73 22.8 72 72 N 3 6 30.01 1016 10 16 0.00 0.00
5:53 pm 17:53 Mostly Sunny 84 28.9 73 22.8 70 70 SSE 6 9 29.98 1015 10 16 0.00 0.00
7:53 pm 19:53 Cloudy 81 27.2 73 22.8 77 77 SW 3 6 30.00 1016 10 16 0.00 0.00

Powered by AerisWeather